Temperature
16 14 13 14 14 15 15 15 14 15 15 13 10 8 8 8 8 8 7 6 6 6 6 6 6 6 6 6 6 6 6 6 6 5 6 6 7 8 8 8 8 9 10 10
13 13 14 14 14 13 14 14 13 14 14 12 8 8 8 8 7 6 5 5 5 5 5 5 5 5 5 5 5 5 5 5 5 5 5 4 5 5 6 6 7 8 8 8
14 14 14 14 13 12 13 13 13 12 12 10 9 8 7 7 6 5 5 5 4 4 4 4 4 4 4 4 4 4 4 4 4 4 4 4 4 4 4 5 6 6 7 7
13 13 13 14 13 13 12 13 12 12 12 10 12 8 7 6 4 4 4 4 3 3 3 3 3 3 3 3 3 3 3 3 3 3 2 2 3 3 3 3 4 5 6 6
13 13 12 13 13 13 12 12 10 11 10 11 11 9 6 6 3 3 3 3 3 2 3 2 2 2 2 2 1 1 1 1 1 1 2 1 1 2 2 2 3 3 4 5
13 14 13 13 13 13 11 10 11 10 9 12 11 10 5 3 3 3 3 2 2 2 2 2 2 1 1 1 0 0 0 -0 -0 -0 -0 0 0 1 1 1 2 2 3 4
12 12 12 13 12 12 10 10 11 12 10 12 9 7 3 3 3 3 3 2 2 1 1 1 0 0 -0 -1 -2 -2 -2 -1 -1 -1 -1 -1 -1 -0 0 0 0 1 1 3
9 11 11 12 12 11 10 9 9 10 10 8 8 5 2 4 4 3 2 2 1 1 0 -0 -1 -1 -1 -2 -3 -3 -3 -3 -2 -1 -1 -1 -1 -1 -1 -1 -1 -1 -1 1
9 10 11 12 12 11 10 9 9 8 8 6 6 4 3 4 3 2 2 1 0 -0 -1 -2 -3 -3 -3 -3 -3 -4 -4 -4 -3 -3 -2 -2 -2 -2 -2 -2 -2 -3 -3 -3
9 9 11 11 12 11 9 10 5 8 6 6 6 4 2 2 1 1 1 0 -1 -1 -2 -3 -4 -4 -4 -5 -5 -5 -6 -6 -5 -5 -5 -5 -4 -4 -4 -4 -4 -5 -5 -4
8 9 9 9 9 9 9 8 8 7 6 5 4 3 4 2 1 0 0 0 -1 -2 -3 -3 -4 -5 -5 -6 -7 -7 -7 -7 -7 -7 -7 -6 -5 -5 -5 -5 -5 -5 -5 -4
7 6 7 8 9 9 9 7 6 5 5 4 3 3 3 2 2 1 1 -0 -2 -3 -4 -5 -6 -6 -7 -7 -7 -8 -8 -8 -8 -8 -8 -7 -7 -6 -6 -5 -5 -5 -5 -4
7 7 7 9 8 8 7 6 6 5 3 3 2 2 2 2 2 2 1 -2 -3 -4 -5 -6 -6 -7 -8 -8 -8 -8 -8 -9 -8 -8 -8 -7 -7 -7 -7 -6 -6 -6 -5 -5
7 6 7 8 8 6 5 5 6 5 2 2 2 2 2 1 1 1 -0 -2 -4 -5 -5 -7 -7 -8 -9 -9 -9 -9 -9 -10 -9 -9 -9 -8 -8 -8 -8 -7 -6 -6 -6 -5
5 5 5 5 5 5 5 4 4 3 2 1 1 1 1 1 1 0 -2 -4 -5 -5 -6 -8 -9 -9 -10 -10 -10 -10 -10 -10 -10 -10 -10 -10 -9 -9 -8 -8 -7 -6 -6 -5
4 4 4 4 4 4 3 3 3 3 2 2 1 0 2 2 1 -1 -3 -5 -6 -6 -7 -8 -9 -10 -11 -11 -11 -11 -11 -11 -10 -10 -10 -10 -10 -9 -9 -9 -8 -7 -7 -6
3 3 3 3 3 3 2 2 2 2 2 1 -0 1 1 0 -1 -2 -5 -6 -7 -7 -8 -9 -10 -11 -11 -12 -12 -12 -12 -11 -11 -11 -11 -11 -11 -10 -10 -10 -9 -8 -8 -7
3 2 2 1 3 4 3 3 3 2 2 2 1 0 0 -1 -2 -4 -6 -6 -7 -8 -9 -10 -10 -11 -12 -12 -12 -12 -12 -12 -11 -11 -11 -11 -11 -11 -10 -10 -10 -9 -9 -8
3 2 2 1 1 2 2 2 2 1 0 1 0 0 -1 -3 -3 -4 -5 -6 -8 -9 -9 -10 -11 -11 -12 -12 -12 -12 -12 -12 -12 -12 -12 -12 -12 -12 -11 -11 -11 -10 -10 -9
2 0 0 -2 0 1 2 3 3 1 -1 1 0 -1 -3 -4 -3 -4 -6 -8 -8 -9 -10 -10 -11 -11 -12 -12 -13 -13 -13 -13 -13 -13 -13 -13 -13 -13 -13 -12 -12 -11 -11 -10
2 1 0 -2 -0 0 2 3 2 -0 0 2 1 -2 -4 -5 -5 -6 -7 -8 -9 -10 -10 -10 -11 -12 -13 -13 -13 -14 -14 -14 -14 -14 -14 -14 -13 -13 -13 -13 -13 -12 -11 -11
2 1 0 -0 -0 -0 3 2 -0 1 2 1 -0 -3 -4 -5 -6 -7 -8 -8 -9 -10 -10 -10 -11 -12 -13 -14 -14 -14 -15 -15 -15 -14 -14 -14 -14 -15 -14 -14 -13 -13 -12 -12
2 2 1 1 1 2 3 2 2 2 1 0 -1 -3 -4 -6 -7 -8 -8 -9 -10 -10 -11 -11 -12 -12 -13 -14 -14 -15 -15 -15 -15 -15 -15 -15 -15 -15 -15 -15 -14 -14 -13 -13
1 2 1 1 1 2 3 2 2 2 1 -1 -2 -4 -5 -7 -8 -8 -9 -9 -10 -11 -11 -12 -12 -13 -14 -14 -14 -15 -15 -15 -15 -15 -15 -15 -15 -15 -15 -15 -15 -15 -14 -14
1 1 -0 -0 1 2 3 2 1 1 -1 -2 -3 -5 -6 -7 -8 -9 -9 -10 -11 -11 -12 -12 -13 -13 -14 -14 -15 -15 -15 -15 -15 -15 -15 -15 -15 -15 -15 -15 -16 -15 -15 -14
1 0 -0 0 1 2 2 1 1 -1 -2 -3 -4 -6 -7 -8 -9 -9 -10 -10 -11 -11 -12 -12 -13 -14 -14 -14 -15 -15 -15 -15 -15 -15 -15 -16 -16 -16 -16 -16 -15 -15 -15 -15
Wind_Speed
5 8 5 5 2 1 2 2 4 2 4 7 12 13 8 6 11 12 13 14 15 14 14 15 15 14 14 15 13 13 13 12 10 7 7 9 10 10 10 9 18 20 22 21
6 6 6 2 5 6 4 2 4 6 7 7 14 12 6 7 10 12 13 13 12 14 16 16 16 17 18 19 20 18 16 14 11 5 4 4 4 5 7 8 13 18 21 21
8 3 5 5 7 9 4 2 3 6 5 6 13 7 5 7 12 14 13 12 14 16 16 16 16 14 15 17 17 16 17 17 14 8 5 5 5 5 6 12 14 16 21 21
6 5 5 5 4 4 4 5 7 6 3 3 4 3 3 6 12 13 11 11 12 15 15 14 15 16 16 15 14 15 14 15 14 9 6 5 5 6 7 9 12 15 17 19
2 4 7 6 6 4 7 12 7 2 5 2 1 4 2 4 9 9 9 10 13 15 14 13 14 15 16 16 13 15 15 15 14 11 11 8 8 8 9 10 12 14 15 16
4 3 3 3 4 2 9 7 3 3 3 0 0 4 0 3 4 5 7 10 13 14 13 11 14 15 16 14 14 16 17 15 13 12 12 12 13 15 14 14 13 12 13 14
6 4 5 4 5 6 9 8 6 7 5 3 2 5 3 4 1 3 6 9 11 13 12 12 16 17 17 13 14 15 16 15 14 14 14 14 13 14 14 14 13 14 14 14
7 5 6 6 3 4 5 5 4 2 5 7 4 4 5 4 1 4 6 8 13 15 11 14 16 17 18 17 17 17 17 16 18 18 17 15 14 12 12 13 14 14 13 15
5 4 3 2 2 3 5 4 1 2 3 4 1 5 3 1 4 7 9 13 13 13 11 13 15 16 16 16 16 18 20 20 19 18 17 17 16 15 16 17 16 14 15 16
1 4 3 4 3 4 3 2 3 4 5 6 3 1 3 9 10 10 10 12 11 12 12 13 15 17 16 18 19 18 19 19 19 19 17 15 16 17 16 16 17 18 18 19
3 2 4 3 4 4 5 5 4 2 1 3 5 2 3 3 5 8 10 11 12 13 15 15 16 17 17 17 17 17 18 18 19 19 18 17 17 18 17 15 18 19 18 19
3 1 5 3 3 2 4 4 3 2 5 3 4 3 4 2 5 7 8 9 9 10 12 12 15 16 16 18 19 19 17 17 18 18 17 17 17 18 17 16 18 19 18 20
2 1 5 6 4 5 5 3 1 1 2 4 4 5 2 4 7 9 10 8 8 11 12 14 16 16 15 18 19 19 19 18 18 17 17 17 17 19 18 18 19 19 19 20
1 1 3 4 2 4 5 5 3 2 1 4 5 10 10 12 14 16 14 10 10 13 15 16 17 16 17 17 18 18 18 17 18 17 16 16 17 17 17 18 19 19 18 19
3 1 3 5 3 1 3 3 4 5 2 2 8 8 9 10 10 11 8 8 11 15 16 17 17 18 17 17 18 18 17 16 17 17 16 15 15 16 16 16 17 18 17 16
3 2 4 5 4 5 4 4 5 3 2 5 7 7 8 9 8 11 8 10 14 15 17 17 16 17 17 17 18 18 16 16 17 16 16 16 15 15 16 16 16 17 16 14
2 2 1 4 5 2 1 1 2 2 5 4 4 8 10 12 15 14 10 13 14 15 15 13 13 14 14 15 16 15 16 16 16 15 16 16 16 16 16 16 16 16 16 14
3 2 2 3 5 2 2 3 4 4 6 2 7 10 9 9 12 4 7 11 12 12 10 10 10 12 12 12 14 14 14 15 15 15 16 16 15 15 15 16 15 15 14 14
3 3 1 2 1 4 3 4 4 5 5 3 7 10 10 10 9 0 7 9 9 8 7 7 8 10 11 11 13 12 13 14 15 15 16 16 15 15 15 15 15 14 12 12
3 4 3 2 1 5 4 5 4 1 4 5 5 7 8 11 12 7 7 8 9 7 9 9 9 10 10 12 12 11 13 15 16 16 16 15 14 14 12 14 13 13 13 12
0 1 1 3 4 7 5 5 2 1 5 6 3 4 4 4 8 9 7 7 8 7 9 10 9 7 8 11 12 12 13 15 16 16 16 15 15 13 11 12 12 11 11 12
5 4 4 3 4 6 3 1 1 5 6 6 3 3 5 7 7 7 8 9 8 9 10 10 9 9 8 11 12 12 13 15 15 16 16 15 15 13 12 12 12 11 10 11
4 5 4 6 7 4 2 4 5 5 4 2 1 4 5 5 6 8 9 8 7 9 9 9 9 9 8 10 12 12 13 14 15 15 14 14 14 13 12 12 12 11 10 10
4 3 2 3 4 4 3 2 3 1 2 2 1 2 0 3 4 6 9 9 8 9 9 10 10 11 10 11 11 11 12 14 13 13 13 13 12 13 11 11 11 11 11 10
3 2 2 4 6 5 2 3 1 4 4 1 0 3 2 1 3 4 6 7 8 9 10 10 10 10 11 11 11 12 12 12 12 12 11 11 10 9 9 9 10 10 11 13
4 5 5 5 4 2 3 3 2 3 2 2 3 3 5 5 2 4 5 6 7 8 9 10 10 10 11 11 12 12 11 11 11 11 11 11 9 8 8 8 9 13 17 20
Wind_Direction
29 52 20 352 16 115 246 270 296 301 30 45 91 91 69 43 59 52 43 36 33 23 7 4 359 354 354 352 349 345 349 343 342 343 343 347 354 348 343 342 339 342 339 332
46 30 329 35 43 42 23 15 344 318 7 69 96 91 75 57 59 56 52 40 25 14 6 360 356 356 355 353 354 348 339 329 323 319 306 304 307 316 318 329 334 340 336 329
93 345 358 53 29 22 351 165 250 268 317 115 125 106 106 72 63 54 43 31 23 9 358 356 357 356 357 3 1 355 347 345 338 327 319 310 316 323 335 342 341 338 333 330
67 10 36 38 35 25 304 254 273 262 269 213 181 151 134 84 59 43 27 21 11 3 356 353 358 1 6 1 352 349 347 343 339 336 331 336 359 351 338 335 328 326 326 325
28 15 29 15 349 353 290 296 292 213 179 252 352 113 202 71 41 14 5 11 9 2 356 358 5 3 355 349 352 347 343 339 336 334 344 0 359 344 329 328 323 322 322 321
35 29 47 344 326 3 314 327 18 73 95 278 124 124 210 39 42 357 359 5 356 354 351 4 6 357 350 350 355 349 347 343 343 355 5 2 347 339 335 332 325 323 319 317
2 10 360 2 353 348 8 11 20 8 3 278 53 78 118 116 91 17 12 359 346 351 356 6 359 354 345 345 353 346 346 345 359 356 352 348 343 339 336 332 328 322 317 315
21 346 353 357 8 317 355 47 61 333 287 294 358 117 158 165 125 23 23 354 356 357 0 1 355 351 343 343 347 344 345 352 352 351 349 346 345 340 334 330 326 320 316 309
18 295 304 344 340 23 359 39 133 223 284 288 223 115 137 146 15 13 3 354 355 351 354 350 351 350 345 339 347 353 351 351 353 351 346 345 343 339 335 331 327 321 315 309
148 279 297 326 5 16 63 58 13 357 320 303 312 93 309 2 356 347 340 344 346 349 348 349 355 348 351 356 355 352 354 353 349 345 342 340 338 337 331 327 322 318 314 311
31 307 309 16 39 329 4 29 43 285 233 277 298 320 58 23 330 317 327 345 349 346 348 351 351 347 347 351 352 349 352 352 349 343 341 340 339 334 326 323 324 322 314 311
24 74 289 292 307 360 71 70 62 2 303 284 266 262 110 191 271 302 328 349 342 342 339 348 347 345 350 352 349 348 350 354 346 340 340 340 337 334 332 334 335 333 326 320
340 57 331 340 340 10 32 33 62 107 350 293 288 275 238 311 311 333 345 351 336 341 346 353 351 350 354 352 349 347 346 348 342 337 338 340 339 336 336 341 339 339 340 335
47 179 196 251 325 345 314 332 348 45 48 305 293 299 322 339 339 336 342 352 344 347 353 354 353 352 348 350 348 344 341 342 338 335 335 338 338 337 336 341 340 340 344 346
63 313 303 285 328 317 310 9 43 79 55 242 278 292 302 315 311 312 334 343 345 350 353 353 351 348 346 348 346 343 338 340 339 338 336 334 337 336 334 337 339 339 343 348
52 9 0 315 11 16 71 44 62 76 318 283 296 291 283 291 305 322 347 348 350 349 348 350 348 345 347 349 343 340 339 341 342 341 338 337 338 339 339 338 337 341 341 346
62 66 50 280 332 49 97 50 65 315 275 273 287 284 301 320 327 331 353 351 348 341 346 347 346 343 343 345 339 337 340 342 343 341 339 338 339 339 340 342 343 343 344 341
123 143 163 285 343 293 223 210 193 258 275 265 291 286 293 298 304 354 11 351 342 340 346 342 341 338 338 339 337 337 341 342 342 341 342 341 340 340 341 343 343 343 345 348
110 146 69 3 276 277 240 253 268 284 278 228 275 299 313 318 302 353 11 354 337 345 346 338 340 336 336 336 333 336 342 344 344 343 342 339 340 341 346 347 344 346 347 349
61 73 100 104 296 264 232 253 263 241 268 247 268 302 316 331 335 341 3 353 343 0 355 348 343 341 341 338 335 336 343 346 345 342 339 338 340 338 345 346 343 345 350 350
85 38 174 182 238 262 246 269 310 61 285 292 271 278 298 305 299 317 347 347 348 4 351 349 336 330 330 334 337 339 342 345 340 338 338 340 342 341 350 345 341 341 347 350
191 186 202 176 246 273 233 326 195 242 271 279 289 271 267 283 304 324 338 341 349 349 346 345 337 331 331 338 340 340 342 339 338 337 339 342 341 347 352 345 343 343 348 346
210 201 201 204 225 234 247 210 230 233 271 348 271 268 285 311 323 335 340 343 349 340 341 339 335 330 334 338 340 337 337 338 337 338 339 341 343 353 349 346 345 350 353 349
257 214 213 263 249 233 221 245 284 8 95 130 224 250 88 290 323 347 345 344 343 339 342 339 335 336 336 336 336 332 333 336 336 336 336 338 350 355 346 347 347 351 351 351
240 180 191 257 284 310 292 325 346 118 106 105 103 138 149 53 10 348 339 343 335 335 338 336 334 333 330 330 329 328 329 331 333 335 335 336 351 344 337 341 345 350 348 351
201 184 173 227 217 187 266 296 104 122 141 168 162 125 81 76 21 341 340 332 330 338 335 335 332 330 327 325 324 322 324 326 325 332 332 334 343 334 335 330 333 343 350 351
Height
1542 1548 1554 1553 1551 1550 1549 1550 1552 1547 1546 1551 1561 1571 1575 1573 1571 1570 1569 1568 1565 1563 1560 1556 1551 1546 1542 1538 1533 1529 1523 1518 1513 1509 1505 1500 1494 1492 1490 1487 1484 1481 1478 1476
1551 1557 1555 1552 1551 1552 1553 1553 1555 1550 1547 1557 1568 1574 1576 1575 1575 1575 1574 1572 1570 1565 1560 1555 1551 1547 1543 1539 1534 1529 1524 1519 1514 1508 1503 1499 1493 1490 1488 1484 1479 1474 1471 1468
1557 1559 1554 1554 1556 1557 1556 1555 1555 1556 1551 1554 1563 1573 1576 1576 1576 1577 1576 1575 1572 1568 1562 1557 1552 1548 1544 1539 1534 1529 1524 1518 1512 1507 1501 1494 1489 1484 1480 1475 1470 1467 1464 1461
1557 1557 1555 1555 1557 1557 1559 1550 1551 1552 1556 1561 1556 1576 1581 1581 1581 1580 1578 1576 1573 1568 1563 1558 1553 1549 1544 1539 1533 1527 1521 1515 1510 1505 1498 1492 1485 1480 1475 1471 1466 1463 1459 1455
1563 1561 1561 1561 1562 1560 1559 1550 1550 1550 1555 1556 1555 1569 1585 1583 1588 1587 1583 1579 1574 1570 1565 1560 1555 1550 1544 1537 1530 1523 1516 1510 1505 1501 1495 1489 1483 1478 1472 1467 1462 1457 1453 1449
1563 1562 1562 1563 1560 1558 1553 1548 1548 1551 1556 1556 1555 1562 1586 1588 1589 1587 1584 1581 1576 1571 1565 1559 1554 1548 1542 1535 1528 1520 1513 1508 1504 1498 1491 1486 1480 1474 1467 1461 1456 1451 1447 1443
1569 1567 1565 1564 1562 1558 1559 1560 1563 1559 1564 1557 1559 1570 1592 1591 1588 1586 1583 1579 1575 1569 1562 1556 1549 1544 1538 1531 1525 1518 1511 1505 1499 1493 1487 1482 1477 1472 1466 1458 1452 1445 1440 1436
1587 1582 1573 1570 1570 1570 1570 1572 1581 1582 1576 1571 1561 1581 1596 1590 1587 1585 1583 1579 1573 1568 1562 1556 1550 1544 1536 1529 1522 1514 1507 1501 1495 1489 1483 1478 1473 1467 1461 1454 1447 1440 1435 1430
1590 1582 1572 1570 1569 1570 1574 1577 1577 1579 1576 1582 1576 1588 1594 1590 1588 1585 1581 1577 1572 1567 1562 1556 1549 1541 1535 1528 1521 1514 1506 1498 1492 1486 1480 1474 1469 1463 1457 1451 1444 1437 1430 1424
1587 1585 1573 1571 1569 1570 1574 1575 1589 1585 1590 1586 1577 1588 1593 1590 1588 1584 1579 1574 1569 1564 1559 1553 1546 1539 1533 1527 1519 1511 1504 1498 1492 1485 1479 1473 1467 1461 1455 1448 1442 1434 1426 1419
1589 1589 1580 1576 1579 1580 1579 1580 1582 1586 1589 1593 1593 1594 1589 1590 1587 1582 1577 1572 1568 1562 1556 1550 1544 1538 1531 1524 1517 1510 1504 1497 1490 1484 1479 1472 1465 1459 1453 1447 1440 1431 1423 1415
1592 1596 1592 1584 1581 1579 1581 1587 1592 1601 1596 1596 1598 1600 1589 1587 1584 1582 1578 1573 1569 1564 1556 1549 1542 1535 1529 1522 1515 1509 1503 1497 1490 1484 1478 1471 1465 1458 1452 1446 1438 1429 1420 1412
1594 1595 1596 1587 1588 1587 1589 1591 1591 1596 1601 1603 1603 1601 1590 1587 1582 1578 1574 1569 1565 1560 1554 1547 1540 1534 1528 1520 1513 1506 1500 1495 1489 1482 1475 1468 1462 1456 1450 1444 1437 1429 1420 1410
1595 1596 1597 1596 1594 1598 1596 1595 1594 1598 1607 1606 1602 1599 1589 1584 1579 1575 1571 1567 1562 1557 1551 1545 1538 1533 1527 1520 1512 1505 1499 1494 1488 1482 1475 1467 1461 1455 1449 1443 1436 1429 1422 1413
1597 1599 1597 1596 1597 1597 1595 1596 1595 1599 1603 1606 1601 1599 1592 1586 1581 1576 1571 1566 1561 1556 1551 1545 1539 1532 1526 1519 1512 1506 1499 1493 1487 1481 1474 1468 1461 1455 1448 1442 1436 1429 1424 1418
1598 1603 1603 1600 1597 1597 1599 1599 1598 1600 1600 1597 1597 1597 1588 1582 1578 1573 1568 1564 1559 1554 1550 1545 1539 1532 1525 1519 1513 1506 1499 1492 1485 1479 1473 1467 1460 1453 1446 1440 1435 1430 1425 1421
1600 1604 1606 1604 1600 1599 1604 1602 1601 1601 1599 1598 1599 1593 1584 1579 1574 1569 1565 1563 1558 1553 1549 1543 1538 1532 1525 1519 1513 1506 1499 1492 1485 1479 1473 1466 1460 1453 1447 1441 1435 1430 1426 1422
1602 1604 1605 1609 1601 1598 1604 1599 1598 1597 1595 1593 1591 1587 1582 1580 1574 1568 1563 1560 1556 1551 1547 1542 1537 1531 1525 1518 1512 1505 1499 1492 1485 1478 1471 1465 1459 1454 1448 1442 1437 1431 1426 1422
1598 1603 1606 1610 1610 1603 1600 1596 1597 1597 1593 1591 1589 1583 1580 1575 1570 1566 1563 1559 1555 1550 1546 1541 1536 1530 1523 1516 1510 1504 1497 1490 1483 1476 1470 1464 1459 1453 1448 1443 1437 1433 1428 1424
1600 1602 1608 1618 1613 1605 1597 1592 1590 1593 1595 1588 1586 1582 1578 1571 1567 1564 1561 1557 1552 1547 1543 1538 1533 1527 1521 1515 1509 1502 1495 1488 1481 1475 1469 1463 1458 1453 1448 1443 1439 1434 1430 1427
1603 1605 1608 1616 1611 1599 1592 1590 1592 1597 1595 1585 1582 1580 1576 1572 1569 1563 1557 1553 1549 1545 1540 1535 1530 1525 1520 1513 1507 1501 1495 1488 1482 1475 1469 1463 1458 1453 1448 1443 1439 1435 1431 1427
1597 1602 1605 1608 1607 1605 1589 1589 1593 1592 1583 1581 1579 1576 1572 1568 1562 1558 1554 1550 1547 1542 1536 1532 1527 1522 1517 1512 1505 1500 1494 1488 1482 1475 1469 1463 1458 1453 1448 1443 1439 1435 1432 1428
1592 1592 1592 1594 1594 1587 1586 1586 1585 1583 1580 1578 1575 1572 1568 1564 1560 1556 1553 1548 1545 1541 1535 1530 1525 1520 1515 1510 1504 1499 1494 1488 1482 1475 1469 1464 1459 1454 1449 1444 1439 1436 1432 1429
1585 1584 1587 1587 1585 1584 1584 1584 1583 1579 1577 1574 1572 1570 1565 1562 1559 1555 1552 1547 1543 1539 1534 1529 1523 1517 1512 1508 1503 1499 1494 1488 1482 1476 1470 1465 1460 1456 1451 1446 1442 1438 1434 1431
1583 1584 1587 1586 1582 1580 1580 1581 1579 1576 1574 1571 1568 1565 1563 1560 1556 1553 1549 1545 1541 1537 1532 1527 1521 1516 1511 1506 1502 1497 1492 1487 1481 1476 1471 1466 1462 1457 1452 1448 1445 1441 1438 1434
1578 1580 1582 1582 1579 1579 1579 1577 1575 1573 1571 1568 1565 1562 1559 1557 1555 1552 1547 1543 1539 1534 1529 1524 1520 1515 1510 1505 1501 1496 1491 1486 1481 1475 1470 1466 1461 1456 1451 1447 1444 1441 1438 1434